Regional Weather Roundup
Issued by NWS Sioux Falls, SD

Home | Current Version | Previous Version | Text Only | Print | Product List | Glossary On
Versions: 1 2 3 4 5 6 7 8 9 10 11 12 13 14 15 16 17 18 19 20 21 22 23 24 25 26 27 28 29 30 31 32 33 34 35 36 37 38 39 40 41 42 43 44 45 46 47 48 49 50
000
ASUS43 KFSD 290202
RWRFSD

WEATHER ROUNDUP FOR SE SOUTH DAKOTA/SW MINNESOTA/NW IOWA
NATIONAL WEATHER SERVICE SIOUX FALLS SD
900 PM CDT SAT MAR 28 2015

NOTE: "FAIR" INDICATES FEW OR NO CLOUDS BELOW 12,000 FEET WITH NO
SIGNIFICANT WEATHER AND OR OBSTRUCTIONS TO VISIBILITY.


SDZ038>040-050-052>070-290300-
SOUTHEAST SOUTH DAKOTA

CITY           SKY/WX    TMP DP  RH WIND       PRES   REMARKS
CHAMBERLAIN    NOT AVBL
HURON          CLEAR     50  32  50 S24G35    29.71F
MADISON        FAIR      45  28  53 S21       29.82F
MITCHELL       CLEAR     50  33  52 SE24      29.76F
SIOUX FALLS    CLEAR     47  28  47 S20G25    29.87F
WINNER         FAIR      62  33  33 S28G38    29.60F
YANKTON        CLEAR     46  30  53 SE18G24   29.87F
$$

MNZ071-072-080-081-089-090-097-098-290300-
SOUTHWEST MINNESOTA

CITY           SKY/WX    TMP DP  RH WIND       PRES   REMARKS
FAIRMONT       CLEAR     37  16  41 S14       29.99F
JACKSON        CLEAR     41  27  56 S16G22    29.97F
LUVERNE        CLEAR     43  30  61 S12       29.91S
MARSHALL       CLEAR     43  27  52 S17       29.88F
MONTEVIDEO     CLEAR     43  30  61 S14G20    29.87F
PIPESTONE      CLEAR     41  28  60 S15       29.87F
REDWOOD FALLS  CLEAR     41  28  60 S18       29.92F
TRACY          CLEAR     44  29  55 S13       29.89F
WINDOM         CLEAR     43  27  52 S14G20    29.95S
WORTHINGTON    CLEAR     41  27  56 S16G22    29.94F
$$

IAZ001>003-012>014-020>022-031-032-NEZ013-014-SDZ071-290300-
NORTHWEST IOWA

CITY           SKY/WX    TMP DP  RH WIND       PRES   REMARKS
DENISON        CLEAR     43  28  56 S13       29.99F
ESTHERVILLE    CLEAR     39  26  59 S20       29.98F
LE MARS        CLEAR     45  28  53 SE12      29.95S
ORANGE CITY    CLEAR     45  27  49 S10       29.94F
SIOUX CITY     CLEAR     47  29  49 S13       29.96F
SPENCER        CLEAR     40  29  64 SE14      29.98S
$$

ABBREVIATIONS USED IN REMARKS
   TC - TEMPERATURE IN CELSIUS
  WCI - WIND CHILL INDEX
   HX - HEAT INDEX
  VSB - VISIBILITY



USA.gov is the U.S. government's official web portal to all federal, state and local government web resources and services.